Location: Limerick
(52.6800°N, 8.6400°W)
Time: 05:01:27
(UTC+01:00)

Sapphire - Visible Passes

Search period start: 15 September 2014 00:00
Search period end: 25 September 2014 00:00
Orbit: 786 x 796 km, 67.1° (Epoch: 14 September)

Date Brightness Start Highest point End Pass type
(mag) Time Alt. Az. Time Alt. Az. Time Alt. Az.
15 Sep ? 00:37:09 10° WNW 00:39:18 17° W 00:39:18 17° W visible
15 Sep ? 20:38:53 10° NNW 20:43:24 26° NNE 20:47:55 10° E visible
15 Sep ? 22:22:15 10° NW 22:27:43 74° NE 22:28:52 55° ESE visible
16 Sep ? 00:06:19 10° WNW 00:09:37 23° W 00:09:37 23° W visible
16 Sep ? 21:51:49 10° NW 21:57:13 60° NE 21:59:12 37° ESE visible
16 Sep ? 23:35:37 10° NW 23:39:57 32° WSW 23:39:57 32° WSW visible
17 Sep ? 21:21:23 10° NW 21:26:41 49° NE 21:29:34 25° ESE visible
17 Sep ? 23:05:00 10° NW 23:10:05 41° WSW 23:10:19 41° WSW visible
18 Sep ? 20:50:57 10° NNW 20:56:07 41° NE 20:59:59 17° ESE visible
18 Sep ? 22:34:27 10° NW 22:39:44 53° WSW 22:40:44 46° SSW visible
19 Sep ? 20:20:31 10° NNW 20:25:30 35° NE 20:30:26 10° E visible
19 Sep ? 22:03:56 10° NW 22:09:20 67° WSW 22:11:11 41° S visible
19 Sep ? 23:49:15 10° WNW 23:51:47 13° WSW 23:51:56 13° WSW visible
20 Sep ? 21:33:27 10° NW 21:38:55 84° SW 21:41:41 30° SSE visible
20 Sep ? 23:18:03 10° WNW 23:21:35 18° WSW 23:22:26 17° WSW visible
21 Sep ? 21:02:59 10° NW 21:08:28 79° NE 21:12:15 20° SE visible
21 Sep ? 22:47:10 10° WNW 22:51:21 23° WSW 22:53:01 20° SW visible
22 Sep ? 20:32:32 10° NW 20:37:58 64° NE 20:42:53 13° SE visible
22 Sep ? 22:16:25 10° NW 22:21:05 30° WSW 22:23:39 20° SSW visible
23 Sep ? 20:02:06 10° NW 20:07:26 53° NE 20:12:45 10° ESE visible
23 Sep ? 21:45:47 10° NW 21:50:46 38° WSW 21:54:21 17° S visible
24 Sep ? 21:15:12 10° NW 21:20:26 48° WSW 21:25:10 12° S visible
